Weather in Cherdaty

Russia / Tomsk District     56°57′01″N   86°56′05″E
temp.,
°C
wind,
m/s
gust,
m/s
humid.,
%
clouds,
%
prec.,
mm/h
press.,
hPa
HPBL,
m
18 april, sun
sun1801:00−5ssw31078100 0.0 1021273
04:00−5s41180100 0.0 1018392
07:00−3ssw51380100 0.0 1015624
10:00+1sw61371100 0.0 10121092
13:00+2wsw51094100 1.2 1012853
16:00+3wsw4576100 0.6 1011985
19:00+1ssw3698100 0.9 1009286
22:00+1s41296100 1.6 1006752
19 april, mon
mon1901:00+1s51298100 2.4 1000706
04:00+2sw51198100 2.8 995858
07:00−6nnw71393100 6.3 996647
10:00−9nw81587100 2.1 10061077
13:00−7wnw81167100 2.3 10131286
16:00−5wnw71068100 0.1 10171888
19:00−7w61067100 0.3 10191569
22:00−8w6117593 0.0 1020987
20 april, tue
tue2001:00−9w51086100 0.1 1021770
04:00−10w51187100 0.0 1021703
07:00−10wnw51088100 0.1 1023614
10:00−7wnw5775100 0.1 1024937
13:00−4w5664100 0.1 10241344
16:00−2w5753100 0.1 10231772
19:00−3wnw3666100 0.1 10231101
22:00−8sw1193100 0.0 102410
21 april, wed
wed2101:00−7s2490100 0.0 102373
04:00−6s2490100 0.0 1022111
07:00−5sse2483100 0.0 1022137
10:00−3s2373100 0.1 1024902
13:00−1s2265100 0.4 10241144
16:00+1se1157100 0.4 10241209
19:000ene236589 0.6 1026172
22:00−3ne258573 0.1 1028105
22 april, thu
thu2201:00−5ne27925 0.1 1030163
04:00−6nne37925 0.0 1032178
07:00−6nne38835 0.0 1034232
10:00−1ne46645 0.0 1036977
13:00+2nne4547100 0.1 10372042
16:00+2nne4551100 0.1 10381590
19:00+1n476893 0.3 1041783
22:00−3n28895 0.0 1043170